Weather in Thanh Hoa

Vietnam     19°48′30″N   105°46′32″E
В апреле 2022 года жителям России запретили посещать сайт meteo.paraplan.net по решению Генеральной прокуратуры. Аудитория сайта уменьшилась в 10 раз. Владельцы сайта не видят смысла в поддержке погодного сервера в таких условиях. Сайт будет закрыт в октябре.
temp.,
°C
wind,
m/s
gust,
m/s
humid.,
%
clouds,
%
prec.,
mm/h
press.,
hPa
HPBL,
m
25 september, sun
sun2501:00+23nnw2498100 10.5 1010174
04:00+22nnw379878 4.8 1009287
07:00+22n2799100 19.9 1011412
10:00+25n3695100 3.8 1012420
13:00+29ene467720 7.6 10101232
16:00+28e35740 0.7 1008772
19:00+24ese12925 3.9 101064
22:00+23nw119577 5.2 101224
26 september, mon
mon2601:00+22nw229796 7.3 101149
04:00+22nw239683 0.0 100979
07:00+24nw24935 0.0 1010129
10:00+29nnw23685 0.1 1011736
13:00+31ne33595 1.1 10091307
16:00+30e236541 0.1 10071092
19:00+25ese1286100 1.1 100939
22:00+24w1189100 0.0 101017
27 september, tue
tue2701:00+23wnw229353 0.0 100832
04:00+23nw22954 0.0 100754
07:00+24nw24925 0.0 1009137
10:00+30nw346467 0.0 1009729
13:00+32nne245599 0.0 10061509
16:00+28ese3682100 0.6 1004165
19:00+26e1285100 0.8 100632
22:00+25nw1187100 0.1 100728
28 september, wed
wed2801:00+25nw249055 0.1 100596
04:00+24nw2493100 0.6 100386
07:00+24n2493100 1.2 1005146
10:00+25n3993100 1.7 1006407
13:00+25nne31092100 4.3 1004569
16:00+24nne71594100 3.9 1003927
19:00+24nne81695100 12.8 10041041
22:00+24nne71597100 10.3 10051099
29 september, thu
thu2901:00+24nne51297100 23.4 1003753
04:00+23nne61297100 6.0 1002783
07:00+23nne51197100 19.7 1004754
10:00+25ne51096100 6.9 1005794
13:00+26ene61192100 13.4 1003838
16:00+26ene5990100 5.8 1003605
19:00+25ene4994100 17.0 1005389
22:00+25ene61291100 8.2 1007671